Probability
0 0 0 0 0 0 0 0 0 0 0 0 0 0 0 1 2 3 2 1 1 2 3 3 2 1 0 0 0 0 0 0 0 0 0 0 0 0 0 0 0 0 0
0 0 0 0 0 0 0 0 0 0 0 0 0 0 0 1 2 3 2 1 0 1 3 3 2 1 0 0 1 1 0 0 0 0 0 0 0 0 0 0 0 0 0
1 0 0 0 0 0 0 0 0 0 0 0 0 0 0 0 1 2 2 1 0 1 2 3 3 1 0 1 2 2 1 0 0 0 0 0 0 0 0 0 0 0 0
2 1 0 0 0 0 0 0 0 0 0 0 0 0 0 0 0 1 1 0 0 0 1 3 3 2 1 1 3 3 2 1 0 0 0 0 0 0 0 0 0 0 0
3 2 1 0 0 0 0 0 0 0 0 0 0 0 0 0 0 0 0 0 0 0 1 2 3 3 2 2 2 3 3 2 1 0 0 0 0 0 0 0 0 0 0
5 4 1 0 0 0 0 0 0 0 0 0 0 0 0 0 0 0 0 0 0 0 0 1 2 3 3 1 1 2 2 2 2 1 0 0 0 0 0 0 0 0 0
6 4 2 0 0 0 0 0 0 0 0 0 0 0 0 0 0 0 0 0 0 0 0 0 1 2 2 1 1 1 1 1 1 1 0 0 0 0 0 0 0 0 0
5 4 2 0 0 0 0 0 0 0 0 0 0 0 0 0 0 0 0 0 0 0 0 0 0 1 1 0 0 0 0 0 1 0 0 0 0 0 0 0 0 0 0
3 3 2 1 1 0 0 0 0 0 0 0 0 0 0 0 0 0 0 0 0 1 1 0 0 0 0 0 0 0 0 0 1 0 0 0 0 0 0 0 0 0 0
1 2 3 3 2 1 0 0 0 0 0 0 0 0 0 0 0 0 0 0 0 1 1 0 0 0 0 0 0 0 0 0 0 0 0 0 0 0 0 0 0 0 0
1 2 3 3 3 1 0 0 0 0 0 0 0 0 0 0 0 0 0 0 0 0 0 0 0 0 0 0 0 0 0 0 0 0 0 0 0 0 0 0 0 0 0
1 2 3 3 3 2 1 0 0 0 0 0 0 0 0 0 0 0 0 0 0 0 0 0 0 0 0 0 0 0 0 0 0 0 0 0 0 0 0 0 0 0 0
0 1 3 3 3 3 2 1 0 0 0 0 0 0 0 0 0 0 0 0 0 0 0 0 0 0 0 0 0 0 0 0 0 0 0 0 0 0 0 0 0 0 0
1 1 3 3 3 3 3 2 1 0 0 0 0 0 0 0 0 0 0 0 0 0 0 0 0 0 0 0 0 0 0 0 0 0 0 0 0 0 0 0 0 0 0
2 3 3 3 3 3 3 2 1 0 0 0 0 0 0 0 0 0 0 0 0 0 0 0 0 0 0 0 0 0 0 0 0 0 0 0 0 0 0 0 0 0 0
3 3 3 3 3 3 3 2 1 0 0 0 0 0 0 0 0 0 0 0 0 0 0 0 0 0 0 0 0 0 0 0 0 0 0 0 0 0 0 0 0 0 0
3 3 3 3 3 3 3 2 1 0 0 0 0 0 0 0 0 0 0 0 0 0 0 0 0 0 0 0 0 0 0 0 0 0 0 0 0 0 0 0 0 0 0
1 2 3 3 2 2 1 1 0 0 0 0 0 0 0 0 0 0 0 0 0 0 0 0 0 0 0 0 0 0 0 0 0 0 0 0 0 0 0 0 0 0 0
0 1 2 2 1 0 0 0 0 0 0 0 0 0 0 0 0 0 0 0 0 0 0 0 0 0 0 0 0 0 0 0 0 0 0 0 0 0 0 0 0 0 0
0 0 1 1 0 0 0 0 0 0 0 0 0 0 0 0 0 0 0 0 0 0 0 0 0 0 0 0 0 0 0 0 0 0 0 0 0 0 0 0 0 0 0
0 0 0 0 0 0 0 0 0 0 0 0 0 0 0 0 0 0 0 0 0 0 0 0 0 0 0 0 0 0 0 0 0 0 0 0 0 0 0 0 0 0 0
0 0 0 0 0 0 0 0 0 0 0 0 0 0 0 0 0 0 0 0 0 0 0 0 0 0 0 0 0 0 0 0 0 0 0 0 0 0 0 0 0 0 0
0 0 0 0 0 0 0 0 0 0 0 0 0 0 0 0 0 0 0 0 0 0 0 0 0 0 0 0 0 0 0 0 0 0 0 0 0 0 0 0 0 0 0
0 0 0 0 0 0 0 0 0 0 0 0 0 0 0 0 0 0 0 0 0 0 0 0 0 0 0 0 0 0 0 0 0 0 0 0 0 0 0 0 0 0 0
0 0 0 0 0 0 0 0 0 0 0 0 0 0 0 0 0 0 0 0 0 0 0 0 0 0 0 0 0 0 0 0 0 0 0 0 0 0 0 0 0 0 0
0 0 0 0 0 0 0 0 0 0 0 0 0 0 0 0 0 0 0 0 0 0 0 0 0 0 0 0 0 0 0 0 0 0 0 0 0 0 0 0 0 0 0
Wind_Speed
3 2 2 2 2 2 2 2 2 2 2 2 2 2 1 1 1 1 1 4 4 4 4 4 4 5 5 6 6 7 7 8 8 9 10 10 11 11 11 12 13 13 13
3 3 2 2 2 2 2 2 3 2 1 1 2 1 1 1 1 1 1 2 4 5 4 4 4 4 5 5 6 7 7 8 9 9 10 11 11 11 12 13 13 13 14
4 3 3 2 2 2 3 2 2 2 1 1 1 1 1 1 1 1 1 1 1 4 5 4 5 5 6 6 6 7 8 8 9 10 10 11 11 12 12 13 13 14 14
4 4 3 2 2 2 2 3 2 2 1 1 0 0 0 1 1 1 1 0 0 1 3 5 6 6 6 7 7 8 8 8 9 10 11 11 12 12 13 13 14 14 14
5 4 3 3 3 2 2 2 1 1 1 0 0 0 0 0 0 1 1 1 0 0 1 4 6 6 7 8 8 9 9 9 10 11 11 12 12 13 14 14 14 14 15
4 4 3 3 3 3 2 2 2 1 1 1 0 1 1 1 0 0 1 1 0 0 1 1 2 4 7 8 9 9 10 10 11 11 12 12 13 13 14 15 15 15 15
3 4 3 3 3 3 3 3 2 2 1 1 1 2 2 1 1 1 1 0 1 1 1 1 1 1 3 7 9 10 11 12 12 12 12 13 13 14 14 15 15 15 16
2 3 4 3 4 3 3 3 2 2 1 1 1 1 2 2 1 1 1 1 1 1 2 2 2 2 2 2 6 10 11 13 13 13 13 13 14 14 14 15 15 16 16
2 2 3 3 3 4 4 3 3 4 2 0 0 2 2 3 3 2 2 1 1 1 2 2 2 2 2 2 3 7 11 13 14 14 14 14 14 15 15 15 15 16 16
2 2 3 3 3 3 3 3 3 2 4 2 1 0 1 1 1 2 2 1 2 2 2 2 2 3 3 2 4 9 11 12 13 14 15 15 15 15 15 15 16 16 16
2 2 2 3 3 2 3 3 2 2 2 3 2 1 1 0 0 1 3 3 2 2 2 2 2 2 3 3 3 7 11 12 13 13 14 15 16 16 16 15 16 16 17
1 2 2 2 3 2 2 2 2 3 3 3 2 2 2 2 1 2 3 3 3 3 2 2 2 2 2 3 5 10 11 12 12 13 13 14 15 16 16 15 16 16 17
1 2 2 2 2 2 2 2 2 2 3 3 3 2 2 2 1 2 2 2 3 3 2 2 2 2 2 2 4 10 10 12 12 13 13 14 14 15 15 15 15 16 16
2 2 1 2 2 3 3 2 2 2 2 3 3 3 2 2 2 2 2 1 2 3 2 3 2 2 2 2 5 8 6 12 12 12 12 13 13 14 14 14 15 15 16
1 2 2 2 2 2 3 3 2 2 2 2 3 3 2 2 2 2 2 2 2 3 4 2 2 2 3 3 6 4 5 10 12 12 12 13 13 13 13 14 14 14 15
2 2 2 2 2 2 3 3 3 3 3 2 2 2 2 2 1 1 2 2 2 3 4 3 3 3 4 4 7 5 5 11 12 13 13 13 13 13 13 14 14 14 15
3 3 3 2 2 2 2 3 3 3 3 3 2 3 3 2 2 2 1 2 2 2 4 4 3 3 4 4 5 4 4 4 6 12 13 13 13 13 13 13 14 15 15
3 3 3 2 2 2 2 3 3 3 4 3 3 3 3 2 2 2 2 2 2 2 3 5 4 3 4 4 4 5 5 5 4 10 13 13 13 13 13 14 14 14 14
2 2 3 3 2 2 2 2 2 3 3 3 3 3 3 2 3 2 2 2 2 2 2 3 3 3 3 3 4 5 5 4 5 7 10 11 12 13 14 14 14 14 15
2 2 2 2 2 2 2 2 2 2 2 2 2 2 3 3 3 3 2 2 2 2 1 2 2 3 3 3 3 4 5 4 5 5 7 8 10 12 14 14 14 14 14
2 2 2 2 1 1 2 2 2 2 2 2 1 1 1 1 2 2 1 1 1 1 1 2 2 3 3 4 4 3 5 5 5 3 4 5 5 5 7 11 12 14 14
1 2 2 2 2 1 2 2 1 1 1 1 1 0 0 1 1 2 2 1 1 0 1 1 2 3 4 4 3 4 4 5 5 3 5 6 4 5 5 5 11 14 15
1 1 1 1 1 2 2 2 2 1 1 1 1 1 0 0 1 1 1 2 2 2 1 1 2 3 3 3 4 4 4 4 5 5 4 5 4 5 5 7 13 13 14
1 1 0 1 1 1 2 2 2 1 0 1 1 1 1 1 1 1 0 1 1 1 2 1 1 2 2 2 2 3 4 5 5 3 2 4 4 5 6 6 10 13 15
1 1 0 0 0 1 1 1 2 1 1 0 1 0 1 1 1 2 1 0 1 2 3 4 4 4 5 5 4 2 3 4 5 4 2 2 4 5 5 4 6 12 14
0 1 1 0 0 1 1 1 2 1 1 0 0 0 1 1 1 1 1 1 1 2 2 3 4 5 4 4 5 2 1 2 3 4 2 3 3 4 5 4 4 5 7
Wind_Direction
136 131 129 119 112 111 116 112 107 99 91 85 83 84 69 97 93 62 15 37 37 25 16 13 14 9 7 5 360 357 356 353 351 347 344 341 338 336 333 331 330 327 325
151 141 142 135 129 129 126 122 122 116 111 107 99 96 96 93 89 74 43 23 25 19 5 360 1 1 356 355 352 351 350 345 343 341 337 335 333 332 330 328 327 325 323
157 157 148 152 151 136 125 113 103 96 96 89 94 108 118 125 140 126 86 47 2 9 1 357 354 353 347 345 343 342 342 341 338 336 333 332 330 329 328 326 325 324 322
159 157 156 156 156 139 133 132 127 114 97 87 53 319 164 165 179 172 149 125 38 1 354 357 349 346 343 337 336 336 336 335 333 332 331 330 328 327 325 324 324 323 321
169 164 163 157 154 145 142 149 130 132 139 118 275 355 331 147 207 188 179 178 202 102 345 351 353 345 340 335 331 330 329 328 328 328 328 326 325 324 323 322 322 321 320
174 164 161 161 157 155 156 151 140 104 123 146 69 5 326 295 146 235 234 212 213 273 313 332 334 335 336 330 328 326 326 322 323 324 324 323 322 322 321 321 321 321 320
173 170 168 167 165 167 174 163 150 130 83 71 71 351 319 299 251 248 282 266 253 259 273 279 290 303 315 329 326 323 325 322 320 320 321 320 320 320 320 320 320 320 321
171 178 171 178 174 164 159 165 160 148 106 98 124 105 315 316 283 242 237 241 267 258 264 275 271 283 292 302 317 323 322 320 319 318 318 319 320 320 319 319 321 322 323
172 178 179 177 179 173 175 180 178 168 170 190 90 142 161 254 298 287 247 236 262 282 277 267 266 277 289 296 297 312 319 320 317 318 318 319 319 319 319 320 320 322 323
181 175 181 179 180 177 175 183 179 179 164 176 184 78 154 170 212 301 299 275 265 262 274 289 275 266 271 281 297 310 315 317 317 317 318 318 318 318 318 319 321 322 323
184 171 179 183 180 179 181 175 168 169 175 176 178 171 155 36 172 220 282 300 305 273 265 268 274 273 281 284 285 301 315 315 316 317 319 320 318 317 317 319 321 322 322
199 175 172 187 185 182 187 182 174 171 180 178 181 178 173 176 198 208 249 275 284 285 279 267 264 271 284 289 300 316 317 317 317 319 321 320 320 319 318 320 321 321 320
221 212 186 184 186 186 183 171 173 179 187 189 193 203 208 211 185 195 232 267 280 288 291 277 259 270 295 296 302 319 318 319 319 320 321 320 319 319 319 319 320 321 321
207 197 183 185 187 179 176 169 180 193 185 194 199 198 211 221 205 207 210 232 290 293 286 276 288 273 297 298 307 326 318 320 320 321 322 321 320 319 320 320 321 321 323
186 162 175 174 184 180 177 174 185 196 193 207 206 204 213 227 220 226 222 213 228 275 284 283 300 305 311 313 319 321 312 319 325 323 323 323 322 322 323 322 322 323 325
176 161 174 181 178 182 182 179 188 192 189 209 209 202 216 221 224 227 222 222 218 232 263 285 284 304 315 322 325 329 316 329 332 330 326 325 324 323 324 324 325 326 326
178 173 185 192 189 195 189 189 194 191 193 205 211 205 221 216 219 230 233 230 227 223 254 284 293 303 303 313 319 323 318 318 321 330 332 332 328 327 327 329 328 327 327
185 182 180 187 196 200 196 195 203 201 202 206 212 212 221 214 222 229 228 235 237 232 243 278 299 304 303 309 315 321 326 326 316 323 332 334 335 335 334 333 332 331 329
185 178 174 184 190 192 205 206 211 212 207 212 211 215 224 211 227 234 227 240 251 258 248 268 295 308 312 323 327 325 324 320 321 324 329 332 336 338 339 339 337 335 333
184 185 184 186 187 189 201 208 208 219 217 215 215 223 229 223 227 231 226 231 240 248 265 282 300 314 316 321 328 330 329 329 321 325 327 331 332 335 336 338 340 339 338
180 167 161 165 181 183 197 206 207 206 212 216 221 239 251 266 266 255 253 240 235 261 290 305 310 319 324 331 329 325 322 323 314 318 325 321 323 324 329 333 338 340 340
148 151 162 170 182 204 203 204 188 170 184 179 178 135 321 292 307 321 332 352 25 304 285 293 300 308 310 312 318 324 325 330 321 330 330 314 320 319 321 320 334 341 343
130 146 159 167 190 203 202 192 171 139 169 177 176 181 216 338 354 277 315 9 13 0 342 247 273 291 302 309 317 319 315 310 298 306 319 304 315 312 315 323 336 342 345
114 115 117 176 216 231 197 164 138 111 144 199 198 189 203 230 264 319 96 26 344 327 311 297 258 280 294 293 286 293 294 304 300 298 316 300 311 312 315 315 334 343 346
88 106 124 128 199 261 170 146 120 117 120 311 291 207 225 234 278 32 89 45 338 335 345 347 342 338 338 343 348 350 338 334 322 313 330 310 310 314 306 305 328 343 346
62 76 60 33 293 270 203 174 135 137 130 29 332 286 271 284 308 23 115 186 274 302 334 347 350 349 351 352 0 1 319 318 317 308 332 332 314 329 320 307 318 331 335